Amateur Radio Satellites - All Passes

Search period start: 24 May 2013 10:28
Search period end: 25 May 2013 10:28
Location: Twillingate Astronomical Observatory, 49.6173°N, 54.7580°W

Satellite Date Start Highest point End Downlink Frequencies (MHz)
Time Altitude Azimuth
Oscar 11 24 May 10:39:29 10:43:36 38° 97° (E) 10:47:41 145.825 FM, Beacon 2401.500 USB
Saudisat 1A 24 May 10:46:03 10:48:10 13° 6° (N) 10:50:17 436.775 MHz
SO-50 24 May 10:48:48 10:53:05 32° 324° (NW) 10:57:18 436.795 FM
JAS-2 24 May 10:55:09 11:02:11 66° 101° (E) 11:08:19 435.800 - 435.900 CW/SSB, 435.910 FM
Sapphire 24 May 10:56:58 11:00:20 16° 339° (NNW) 11:03:43 437.095 MHz 1200 baud AX-25 AFSK
MaSat-1 24 May 11:23:02 11:26:35 61° 243° (WSW) 11:29:25 437.345 MHz
HO-68 24 May 11:33:33 11:40:40 69° 293° (WNW) 11:47:46 435.675 MHz FM
JAS-1B 24 May 11:50:16 11:52:21 12° 319° (NW) 11:54:21 435.800 - 435.900 CW/SSB
OPAL 24 May 11:53:32 11:58:35 75° 106° (ESE) 12:03:32 ?
UOSAT-12 24 May 11:59:42 12:04:09 61° 125° (SE) 12:08:40 437.025 FM, 437.400 FM
Oscar 16 24 May 12:03:47 12:06:13 13° 52° (NE) 12:08:39 437.025 USB, Beacon 2401.1428
PCSat 24 May 12:10:05 12:12:18 12° 358° (N) 12:14:31 145.825 MHz
Oscar 11 24 May 12:16:01 12:19:42 27° 296° (WNW) 12:23:22 145.825 FM, Beacon 2401.500 USB
AO-27 24 May 12:16:42 12:19:03 13° 51° (NE) 12:21:24 436.795 MHz FM
ITAMSAT 1 24 May 12:22:33 12:25:13 14° 52° (NE) 12:27:53 435.822 SSB
Saudisat 1A 24 May 12:25:44 12:29:29 24° 30° (NNE) 12:33:11 436.775 MHz
SO-50 24 May 12:32:34 12:35:07 14° 348° (NNW) 12:37:38 436.795 FM
JAS-2 24 May 12:40:42 12:46:41 31° 304° (NW) 12:52:07 435.800 - 435.900 CW/SSB, 435.910 FM
Sapphire 24 May 12:43:50 12:46:08 13° 6° (N) 12:48:27 437.095 MHz 1200 baud AX-25 AFSK
Oscar 19 24 May 13:00:42 13:05:12 30° 62° (ENE) 13:09:42 437.125 CW, 437.150 USB
Uribyol 2 24 May 13:01:02 13:05:22 28° 61° (ENE) 13:09:45 436.500 FM
HO-68 24 May 13:22:31 13:27:12 19° 315° (NW) 13:31:53 435.675 MHz FM
OPAL 24 May 13:33:23 13:36:58 20° 306° (NW) 13:40:30 ?
Oscar 16 24 May 13:39:31 13:44:41 69° 71° (ENE) 13:49:53 437.025 USB, Beacon 2401.1428
UOSAT-12 24 May 13:40:42 13:44:40 29° 326° (NW) 13:48:41 437.025 FM, 437.400 FM
AO-27 24 May 13:52:32 13:57:40 67° 71° (ENE) 14:02:50 436.795 MHz FM
PCSat 24 May 13:54:20 13:58:02 18° 24° (NNE) 14:01:44 145.825 MHz
ITAMSAT 1 24 May 13:58:43 14:03:52 74° 72° (ENE) 14:09:05 435.822 SSB
Saudisat 1A 24 May 14:05:09 14:09:46 85° 232° (SW) 14:14:16 436.775 MHz
TMSAT-1 24 May 14:07:41 14:09:37 12° 50° (NE) 14:11:34 436.925 FM
SO-50 24 May 14:15:04 14:17:38 14° 13° (NNE) 14:20:11 436.795 FM
Uosat F 24 May 14:24:51 14:28:51 25° 60° (ENE) 14:32:51 435.120 FM
Sapphire 24 May 14:27:19 14:31:39 23° 32° (NNE) 14:35:58 437.095 MHz 1200 baud AX-25 AFSK
Gurwin Techsat 1B 24 May 14:27:53 14:31:58 23° 59° (ENE) 14:36:04 435.225 FM
AO-Echo 24 May 14:29:46 14:34:23 49° 69° (ENE) 14:38:57 ?
Oscar 19 24 May 14:39:24 14:44:23 46° 261° (W) 14:49:25 437.125 CW, 437.150 USB
Uribyol 2 24 May 14:39:35 14:44:37 51° 260° (W) 14:49:43 436.500 FM
AO-7 24 May 14:49:01 14:55:11 24° 43° (NE) 15:01:23 29.400 - 29.500 MHz
Oscar 16 24 May 15:20:52 15:24:34 20° 270° (W) 15:28:18 437.025 USB, Beacon 2401.1428
UOSAT-12 24 May 15:24:01 15:26:18 14° 350° (N) 15:28:36 437.025 FM, 437.400 FM
AO-27 24 May 15:33:59 15:37:42 20° 270° (W) 15:41:27 436.795 MHz FM
PCSat 24 May 15:37:21 15:42:43 54° 48° (NE) 15:48:01 145.825 MHz
ITAMSAT 1 24 May 15:40:30 15:43:58 18° 271° (W) 15:47:29 435.822 SSB
TMSAT-1 24 May 15:43:20 15:48:32 60° 70° (ENE) 15:53:46 436.925 FM
RS-15 24 May 15:45:12 15:55:33 36° 107° (ESE) 16:05:31 29.354 - 29.394 USB, Beacon 29.352 USB
Saudisat 1A 24 May 15:46:32 15:48:45 14° 250° (WSW) 15:50:57 436.775 MHz
SO-50 24 May 15:55:24 15:59:37 34° 37° (NE) 16:03:45 436.795 FM
Uosat F 24 May 16:02:26 16:07:21 56° 259° (W) 16:12:17 435.120 FM
Gurwin Techsat 1B 24 May 16:06:15 16:11:31 66° 258° (WSW) 16:16:50 435.225 FM
AO-Echo 24 May 16:09:39 16:13:28 23° 267° (W) 16:17:15 ?
Sapphire 24 May 16:10:26 16:15:55 83° 54° (NE) 16:21:21 437.095 MHz 1200 baud AX-25 AFSK
AO-7 24 May 16:38:30 16:46:46 75° 66° (ENE) 16:55:06 29.400 - 29.500 MHz
UOSAT-12 24 May 17:05:45 17:08:21 15° 15° (NNE) 17:10:57 437.025 FM, 437.400 FM
JAS-1B 24 May 17:10:15 17:13:29 13° 43° (NE) 17:16:32 435.800 - 435.900 CW/SSB
PCSat 24 May 17:21:11 17:25:55 31° 248° (WSW) 17:30:38 145.825 MHz
TMSAT-1 24 May 17:24:45 17:28:53 23° 269° (W) 17:33:03 436.925 FM
SO-50 24 May 17:36:01 17:40:24 47° 238° (WSW) 17:44:43 436.795 FM
RS-15 24 May 17:55:00 18:07:01 82° 311° (NW) 18:18:30 29.354 - 29.394 USB, Beacon 29.352 USB
Sapphire 24 May 17:55:01 17:58:42 19° 254° (WSW) 18:02:22 437.095 MHz 1200 baud AX-25 AFSK
Hamsat 24 May 18:01:28 18:04:20 18° 61° (ENE) 18:07:14 145.90 MHz
AO-7 24 May 18:33:20 18:40:20 30° 267° (W) 18:47:25 29.400 - 29.500 MHz
HO-68 24 May 18:38:53 18:40:16 11° 34° (NE) 18:41:39 435.675 MHz FM
UOSAT-12 24 May 18:45:33 18:49:49 36° 38° (NE) 18:54:04 437.025 FM, 437.400 FM
JAS-1B 24 May 18:54:23 19:02:34 46° 64° (ENE) 19:09:31 435.800 - 435.900 CW/SSB
SO-67 24 May 19:05:20 19:08:10 22° 66° (ENE) 19:11:01 435.3500 MHz FM
STRAND 1 24 May 19:09:49 19:14:39 39° 97° (E) 19:19:27 ?
JAS-2 24 May 19:29:27 19:33:42 16° 44° (NE) 19:37:53 435.800 - 435.900 CW/SSB, 435.910 FM
Hamsat 24 May 19:35:51 19:40:01 59° 259° (W) 19:44:15 145.90 MHz
RS-15 24 May 20:10:15 20:21:13 42° 341° (NNW) 20:31:45 29.354 - 29.394 USB, Beacon 29.352 USB
HO-68 24 May 20:19:38 20:25:59 36° 57° (ENE) 20:32:21 435.675 MHz FM
UOSAT-12 24 May 20:25:43 20:30:07 45° 238° (WSW) 20:34:29 437.025 FM, 437.400 FM
SO-67 24 May 20:38:18 20:41:30 31° 264° (W) 20:44:45 435.3500 MHz FM
JAS-1B 24 May 20:44:29 20:53:07 50° 261° (W) 21:00:28 435.800 - 435.900 CW/SSB
STRAND 1 24 May 20:49:11 20:53:49 35° 296° (WNW) 20:58:26 ?
JAS-2 24 May 21:09:38 21:17:08 52° 65° (ENE) 21:24:33 435.800 - 435.900 CW/SSB, 435.910 FM
OPAL 24 May 21:34:41 21:39:22 36° 62° (ENE) 21:44:02 ?
Oscar 11 24 May 21:38:56 21:43:08 53° 71° (ENE) 21:47:23 145.825 FM, Beacon 2401.500 USB
HO-68 24 May 22:06:24 22:13:25 59° 258° (WSW) 22:20:29 435.675 MHz FM
KITSAT 1 24 May 22:18:35 22:25:20 31° 108° (ESE) 22:32:07 435.175 FM
RS-15 24 May 22:26:25 22:37:03 40° 15° (NNE) 22:47:14 29.354 - 29.394 USB, Beacon 29.352 USB
JAS-1B 24 May 22:44:35 22:45:13 10° 280° (W) 22:45:50 435.800 - 435.900 CW/SSB
JAS-2 24 May 22:54:51 23:02:14 44° 265° (W) 23:09:37 435.800 - 435.900 CW/SSB, 435.910 FM
OPAL 24 May 23:13:25 23:18:14 39° 260° (W) 23:23:03 ?
Oscar 11 24 May 23:16:38 23:19:42 19° 269° (W) 23:22:48 145.825 FM, Beacon 2401.500 USB
HO-68 25 May 00:00:34 00:02:42 11° 279° (W) 00:04:50 435.675 MHz FM
AO-40 25 May 00:01:22 04:29:12 28° 155° (SSE) 06:58:57 Beacon 2401.320
KITSAT 1 25 May 00:11:58 00:20:03 78° 310° (NW) 00:28:13 435.175 FM
MaSat-1 25 May 00:20:02 00:22:22 12° 101° (E) 00:24:35 437.345 MHz
RS-15 25 May 00:40:09 00:51:29 75° 46° (NE) 01:02:23 29.354 - 29.394 USB, Beacon 29.352 USB
Oscar 16 25 May 01:47:59 01:51:26 18° 89° (E) 01:54:52 437.025 USB, Beacon 2401.1428
MaSat-1 25 May 01:57:12 02:03:52 61° 116° (ESE) 02:09:13 437.345 MHz
AO-27 25 May 02:02:14 02:05:42 18° 89° (E) 02:09:09 436.795 MHz FM
ITAMSAT 1 25 May 02:08:08 02:11:51 19° 90° (E) 02:15:33 435.822 SSB
KITSAT 1 25 May 02:09:39 02:16:46 32° 335° (NNW) 02:23:56 435.175 FM
AO-Echo 25 May 02:34:49 02:36:03 11° 86° (E) 02:37:17 ?
Oscar 19 25 May 02:46:27 02:51:26 46° 99° (E) 02:56:22 437.125 CW, 437.150 USB
Uribyol 2 25 May 02:47:50 02:52:49 42° 98° (E) 02:57:45 436.500 FM
RS-15 25 May 02:53:11 03:03:01 39° 251° (WSW) 03:12:40 29.354 - 29.394 USB, Beacon 29.352 USB
ISS 25 May 03:16:31 03:19:41 44° 151° (SSE) 03:22:54 145.800 FM
Oscar 16 25 May 03:26:12 03:31:24 75° 288° (WNW) 03:36:33 437.025 USB, Beacon 2401.1428
MaSat-1 25 May 03:40:31 03:46:12 33° 312° (NW) 03:50:51 437.345 MHz
AO-27 25 May 03:40:35 03:45:50 76° 288° (WNW) 03:51:03 436.795 MHz FM
ITAMSAT 1 25 May 03:46:40 03:51:54 70° 289° (WNW) 03:57:05 435.822 SSB
TMSAT-1 25 May 03:55:50 03:59:18 17° 88° (E) 04:02:45 436.925 FM
Uosat F 25 May 04:05:55 04:10:27 33° 96° (E) 04:14:58 435.120 FM
KITSAT 1 25 May 04:08:28 04:14:56 25° 5° (N) 04:21:24 435.175 FM
AO-Echo 25 May 04:10:52 04:15:39 80° 104° (ESE) 04:20:30 ?
Gurwin Techsat 1B 25 May 04:18:09 04:23:05 37° 96° (E) 04:27:59 435.225 FM
Oscar 19 25 May 04:26:10 04:30:38 30° 298° (WNW) 04:35:03 437.125 CW, 437.150 USB
Uribyol 2 25 May 04:27:34 04:32:13 33° 297° (WNW) 04:36:52 436.500 FM
AO-7 25 May 04:36:31 04:41:54 18° 86° (E) 04:47:15 29.400 - 29.500 MHz
ISS 25 May 04:53:02 04:56:21 66° 350° (N) 04:59:42 145.800 FM
STRAND 1 25 May 04:53:47 04:56:48 16° 54° (NE) 04:59:50 ?
Oscar 16 25 May 05:07:15 05:09:56 14° 308° (NW) 05:12:36 437.025 USB, Beacon 2401.1428
AO-27 25 May 05:21:43 05:24:33 15° 307° (NW) 05:27:23 436.795 MHz FM
ITAMSAT 1 25 May 05:27:59 05:30:31 14° 308° (NW) 05:33:03 435.822 SSB
MaSat-1 25 May 05:29:01 05:29:40 10° 333° (NNW) 05:30:19 437.345 MHz
TMSAT-1 25 May 05:34:33 05:39:53 79° 287° (WNW) 05:45:11 436.925 FM
Uosat F 25 May 05:44:40 05:49:20 39° 295° (WNW) 05:53:59 435.120 FM
AO-Echo 25 May 05:50:55 05:53:55 17° 303° (WNW) 05:56:56 ?
Saudisat 1A 25 May 05:55:32 06:00:02 58° 124° (SE) 06:04:35 436.775 MHz
Gurwin Techsat 1B 25 May 05:58:12 06:03:05 38° 295° (WNW) 06:07:57 435.225 FM
KITSAT 1 25 May 06:05:10 06:12:46 41° 33° (NNE) 06:20:21 435.175 FM
PCSat 25 May 06:25:31 06:29:06 18° 106° (ESE) 06:32:41 145.825 MHz
AO-7 25 May 06:27:43 06:36:08 75° 107° (ESE) 06:44:30 29.400 - 29.500 MHz
ISS 25 May 06:29:56 06:33:17 67° 10° (N) 06:36:38 145.800 FM
STRAND 1 25 May 06:30:12 06:35:18 86° 74° (ENE) 06:40:27 ?
Sapphire 25 May 06:57:14 07:01:53 30° 112° (ESE) 07:06:34 437.095 MHz 1200 baud AX-25 AFSK
TMSAT-1 25 May 07:16:01 07:19:01 16° 307° (NW) 07:22:01 436.925 FM
Hamsat 25 May 07:18:39 07:21:51 20° 91° (E) 07:25:02 145.90 MHz
Saudisat 1A 25 May 07:35:56 07:40:02 31° 325° (NW) 07:44:09 436.775 MHz
SO-50 25 May 07:56:13 07:59:44 21° 114° (ESE) 08:03:13 436.795 FM
KITSAT 1 25 May 08:00:44 08:08:52 75° 238° (WSW) 08:16:57 435.175 FM
SO-67 25 May 08:01:19 08:03:38 16° 91° (E) 08:05:56 435.3500 MHz FM
PCSat 25 May 08:06:25 08:11:51 85° 306° (NW) 08:17:19 145.825 MHz
ISS 25 May 08:06:44 08:09:56 42° 210° (SSW) 08:13:08 145.800 FM
STRAND 1 25 May 08:12:22 08:15:13 15° 273° (W) 08:18:04 ?
AO-7 25 May 08:21:07 08:28:20 34° 309° (NW) 08:35:33 29.400 - 29.500 MHz
JAS-1B 25 May 08:25:42 08:31:18 37° 95° (E) 08:36:30 435.800 - 435.900 CW/SSB
Sapphire 25 May 08:39:46 08:45:05 55° 312° (NW) 08:50:26 437.095 MHz 1200 baud AX-25 AFSK
Hamsat 25 May 08:53:59 08:58:14 52° 289° (WNW) 09:02:29 145.90 MHz
Saudisat 1A 25 May 09:18:44 09:21:09 14° 348° (NNW) 09:23:34 436.775 MHz
HO-68 25 May 09:29:51 09:35:17 23° 89° (E) 09:40:40 435.675 MHz FM
SO-67 25 May 09:33:54 09:37:20 43° 289° (WNW) 09:40:44 435.3500 MHz FM
SO-50 25 May 09:35:10 09:39:56 71° 313° (NW) 09:44:39 436.795 FM
PCSat 25 May 09:51:43 09:56:04 24° 328° (NNW) 10:00:26 145.825 MHz
KITSAT 1 25 May 09:57:44 10:02:57 19° 259° (W) 10:08:11 435.175 FM
JAS-2 25 May 10:00:49 10:06:40 29° 89° (E) 10:11:55 435.800 - 435.900 CW/SSB, 435.910 FM
AO-7 25 May 10:15:46 10:18:39 12° 334° (NNW) 10:21:33 29.400 - 29.500 MHz
JAS-1B 25 May 10:16:26 10:22:07 39° 298° (WNW) 10:27:22 435.800 - 435.900 CW/SSB

Developed and maintained by Chris Peat, Heavens-Above GmbH. Please read the updated FAQ before sending e-mail. Imprint. DLR
